TimeMDT,TemperatureF,Dew PointF,Humidity,Sea Level PressureIn,VisibilityMPH,Wind Direction,Wind SpeedMPH,Gust SpeedMPH,PrecipitationIn,Events,Conditions,WindDirDegrees,DateUTC
12:56 AM,48.0,46.9,96,30.12,-9999.0,NW,3.5,-,N/A,,Unknown,320,2013-09-07 06:56:00
1:56 AM,48.0,46.9,96,30.13,-9999.0,Calm,Calm,-,N/A,,Unknown,0,2013-09-07 07:56:00
2:56 AM,48.0,46.9,96,30.14,-9999.0,Calm,Calm,-,N/A,,Unknown,0,2013-09-07 08:56:00
4:56 AM,44.1,43.0,96,30.18,-9999.0,Calm,Calm,-,N/A,,Unknown,0,2013-09-07 10:56:00
5:56 AM,43.0,42.1,97,30.20,-9999.0,Calm,Calm,-,N/A,,Unknown,0,2013-09-07 11:56:00
6:56 AM,44.1,43.0,96,30.24,-9999.0,Calm,Calm,-,N/A,,Unknown,0,2013-09-07 12:56:00
7:56 AM,46.0,45.0,96,30.21,-9999.0,Calm,Calm,-,N/A,,Unknown,0,2013-09-07 13:56:00
8:56 AM,55.0,50.0,83,30.20,-9999.0,Calm,Calm,-,N/A,,Unknown,0,2013-09-07 14:56:00
9:56 AM,57.0,51.1,81,30.19,-9999.0,East,3.5,-,N/A,,Unknown,100,2013-09-07 15:56:00
1:56 PM,69.1,44.1,40,30.12,-9999.0,Variable,3.5,-,N/A,,Unknown,0,2013-09-07 19:56:00
2:56 PM,70.0,42.1,36,30.10,-9999.0,Variable,5.8,-,0.01,,Unknown,0,2013-09-07 20:56:00
3:56 PM,68.0,43.0,40,30.10,-9999.0,Variable,5.8,-,N/A,,Unknown,0,2013-09-07 21:56:00
4:56 PM,66.0,45.0,47,30.12,-9999.0,Variable,3.5,-,N/A,,Unknown,0,2013-09-07 22:56:00
5:56 PM,63.0,35.1,35,30.14,-9999.0,West,8.1,16.1,N/A,,Unknown,280,2013-09-07 23:56:00
6:56 PM,55.9,42.1,60,30.15,-9999.0,WNW,6.9,-,N/A,,Unknown,300,2013-09-08 00:56:00
7:56 PM,52.0,43.0,71,30.19,-9999.0,Calm,Calm,-,N/A,,Unknown,0,2013-09-08 01:56:00
8:56 PM,48.9,42.1,77,30.22,-9999.0,NW,3.5,-,N/A,,Unknown,310,2013-09-08 02:56:00
9:56 PM,46.9,41.0,80,30.22,-9999.0,Calm,Calm,-,N/A,,Unknown,0,2013-09-08 03:56:00
10:56 PM,45.0,39.9,82,30.22,-9999.0,Calm,Calm,-,N/A,,Unknown,0,2013-09-08 04:56:00
11:56 PM,43.0,39.9,89,30.18,-9999.0,Calm,Calm,-,N/A,,Unknown,0,2013-09-08 05:56:00